Location: Miles
(41.4492°N, 81.6087°W)
Time: 16:02:19
(UTC+00:00)

A-11 Canister half - Pass Details

Date: 19 September 2024
Orbit: 1515 x 1684 km, 47.2° (Epoch: 11 October)

Event Time Altitude Azimuth Distance (km) Brightness Sun altitude
Rises 05:25:09 0° 297° (WNW) 4,665 11.8 -47.3°
Reaches altitude 10° 05:28:14 10° 293° (WNW) 3,677 11.1 -47.2°
Enters shadow 05:29:25 15° 291° (WNW) 3,314 10.8 -47.2°
